Stations météo

réclame
Mon MeteoGroup
Fair Isle, Grande-Bretagne (3008): Température de l'air & dewpoint: 20.08.2019 01:00:00 - 26.08.2019 01:00:00 (BST)Fair Isle, Grande-Bretagne (3008): Température de l'air -20cm & Température de l'air -100cm: 20.08.2019 01:00:00 - 26.08.2019 01:00:00 (BST)Fair Isle, Grande-Bretagne (3008): Vitesse du vent & gusts: 20.08.2019 01:00:00 - 26.08.2019 01:00:00 (BST)Fair Isle, Grande-Bretagne (3008): Direction du vent: 20.08.2019 01:00:00 - 26.08.2019 01:00:00 (BST)Fair Isle, Grande-Bretagne (3008): reduced air pressure: 20.08.2019 01:00:00 - 26.08.2019 01:00:00 (BST)Fair Isle, Grande-Bretagne (3008): visibility: 20.08.2019 01:00:00 - 26.08.2019 01:00:00 (BST)Fair Isle, Grande-Bretagne (3008): Quantités de précipitations: 20.08.2019 01:00:00 - 26.08.2019 01:00:00 (BST)
Date & Time tt [°C] td [°C] tt -20cm [°C] tt -100cm [°C] ff [km/h] ff [knt] fx [km/h] fx [knt] dd ppp [hPa] vv [km] rr [mm]
26.08.2019 01:00:00 13,6 12,5 - - 21 11 - - S 1015,5 8 0,0
26.08.2019 00:00:00 14,0 12,4 - - 22 12 - - S 1016,1 10 0,0
25.08.2019 23:00:00 14,4 12,7 - - 26 14 - - SSE 1016,0 10 0,0
25.08.2019 22:00:00 14,3 12,6 - - 24 13 - - SSE 1016,3 10 0,0
25.08.2019 21:00:00 14,2 12,9 - - 24 13 - - SSE 1016,4 9 0,0
25.08.2019 20:00:00 14,0 13,2 - - 24 13 - - SSE 1016,5 10 0,0
25.08.2019 19:00:00 12,9 12,9 - - 13 7 - - SE 1016,8 0,1 0,0
25.08.2019 18:00:00 13,2 13,2 - - 18 10 - - SE 1017,2 0,3 0,0
25.08.2019 17:00:00 14,2 13,8 - - 16 9 - - SE 1017,4 3,4 0,0
25.08.2019 16:00:00 14,5 13,7 - - 13 7 - - ESE 1018,1 0,8 0,0
25.08.2019 15:00:00 14,4 13,8 - - 11 6 - - ESE 1018,9 1,3 0,0
25.08.2019 14:00:00 14,4 13,7 - - 15 8 - - E 1018,9 4,4 0,0
25.08.2019 13:00:00 13,9 13,8 - - 21 11 - - NE 1018,9 0,1 0,0
25.08.2019 12:00:00 14,3 12,8 - - 13 7 - - ENE 1019,3 16 0,0
25.08.2019 11:00:00 15,8 13,4 - - 9 5 - - NE 1019,7 35 0,0
25.08.2019 10:00:00 15,6 14,3 14,0 12,9 5 3 - - N 1019,3 17 0,0
25.08.2019 09:00:00 14,1 13,3 - - 9 5 - - NW 1019,4 21 0,0
25.08.2019 08:00:00 15,1 14,0 - - 4 2 - - ENE 1018,9 21 0,0
25.08.2019 07:00:00 12,1 11,8 - - 4 2 - - N 1019,2 21 0,0
25.08.2019 06:00:00 11,6 11,0 - - 2 1 - - SE 1018,8 1,5 0,0
25.08.2019 05:00:00 12,7 11,9 - - 2 1 - - S 1018,6 15 0,0
25.08.2019 04:00:00 13,1 11,5 - - 4 2 - - W 1018,4 30 0,0
25.08.2019 03:00:00 13,8 12,2 - - 5 3 - - SSW 1018,6 23 0,0
25.08.2019 02:00:00 14,0 12,4 - - 8 4 - - W 1018,3 23 0,0
25.08.2019 01:00:00 13,8 12,2 - - 11 6 - - WSW 1018,0 27 0,0
25.08.2019 00:00:00 14,5 12,5 - - 16 9 - - SW 1017,7 40 0,0
24.08.2019 23:00:00 13,7 12,3 - - 16 9 - - SSW 1017,6 27 0,0
24.08.2019 22:00:00 13,2 12,4 - - 11 6 - - SSW 1017,3 21 0,0
24.08.2019 21:00:00 13,2 12,4 - - 13 7 - - S 1017,5 15 0,0
24.08.2019 20:00:00 13,5 12,3 - - 13 7 - - S 1017,0 15 0,0
24.08.2019 19:00:00 13,6 12,0 - - 11 6 - - S 1016,8 30 0,0
24.08.2019 18:00:00 14,4 11,9 - - 13 7 - - S 1016,6 26 0,0
24.08.2019 17:00:00 15,2 11,9 - - 21 11 - - SSW 1016,6 35 0,0
24.08.2019 16:00:00 15,2 12,4 - - 21 11 - - SSW 1016,6 25 0,0
24.08.2019 15:00:00 14,9 12,4 - - 21 11 - - SSW 1016,7 24 0,0
24.08.2019 14:00:00 14,3 12,6 - - 24 13 - - S 1016,4 18 0,0
24.08.2019 13:00:00 14,6 12,6 - - 22 12 - - S 1016,1 15 0,0
24.08.2019 12:00:00 15,2 13,8 - - 24 13 - - S 1015,9 25 0,0
24.08.2019 11:00:00 13,5 12,9 - - 21 11 - - SSE 1015,5 11 0,0
24.08.2019 10:00:00 13,6 13,0 13,7 13,0 21 11 - - S 1015,4 12 0,0
24.08.2019 09:00:00 13,4 12,9 - - 21 11 - - SSE 1015,5 12 0,0
24.08.2019 08:00:00 13,4 13,0 - - 22 12 - - SSE 1015,3 12 0,0
24.08.2019 07:00:00 12,7 12,5 - - 15 8 - - SE 1015,6 9 0,0
24.08.2019 06:00:00 13,0 12,5 - - 16 9 - - SE 1015,6 11 0,0
24.08.2019 05:00:00 12,3 11,9 - - 5 3 - - ESE 1016,2 6 0,0
24.08.2019 04:00:00 12,7 11,8 - - 9 5 - - SE 1016,5 12 0,0
24.08.2019 03:00:00 12,6 11,7 - - 5 3 - - ESE 1017,1 15 0,0
24.08.2019 02:00:00 13,2 12,0 - - 18 10 - - SSE 1017,3 19 0,0
24.08.2019 01:00:00 13,1 11,6 - - 21 11 - - SSE 1017,5 18 0,0
24.08.2019 00:00:00 13,3 11,7 - - 21 11 - - SSE 1017,6 24 0,0
23.08.2019 23:00:00 13,7 12,0 - - 11 6 - - SSE 1017,4 22 0,0
23.08.2019 22:00:00 13,1 11,9 - - 11 6 - - S 1017,4 16 0,0
23.08.2019 21:00:00 13,3 12,0 - - 15 8 - - SW 1017,0 15 0,0
23.08.2019 20:00:00 13,3 12,4 - - 8 4 - - SSW 1017,0 12 0,0
23.08.2019 19:00:00 13,4 12,7 - - 11 6 - - SSW 1016,7 15 0,0
23.08.2019 18:00:00 14,2 13,9 - - 13 7 - - SW 1016,6 15 0,0
23.08.2019 17:00:00 13,6 13,6 - - 11 6 - - SSW 1016,3 6 0,8
23.08.2019 16:00:00 13,6 13,5 - - 22 12 - - SW 1016,5 3,4 0,2
23.08.2019 15:00:00 13,2 13,0 - - 18 10 - - SSW 1015,9 12 0,2
23.08.2019 14:00:00 13,1 13,1 - - 22 12 - - SSW 1015,4 5 1,0
23.08.2019 13:00:00 12,6 12,6 - - 16 9 - - S 1014,9 6 0,6
23.08.2019 12:00:00 12,4 12,4 - - 16 9 - - S 1014,4 9 0,4
23.08.2019 11:00:00 12,3 12,1 - - 16 9 - - SSW 1013,9 8 0,0
23.08.2019 10:00:00 12,6 11,8 13,9 13,0 22 12 - - SW 1013,6 15 0,0
23.08.2019 09:00:00 12,6 11,7 - - 24 13 - - SSW 1013,3 13 0,0
23.08.2019 08:00:00 12,8 11,9 - - 21 11 - - SW 1012,6 9 0,0
23.08.2019 07:00:00 12,7 11,4 - - 24 13 - - WSW 1012,1 8 0,0
23.08.2019 06:00:00 12,6 11,2 - - 31 17 52 28 WSW 1011,1 11 0,0
23.08.2019 05:00:00 12,6 10,8 - - 35 19 55 30 WSW 1010,4 10 0,0
23.08.2019 04:00:00 12,9 10,3 - - 41 22 59 32 WSW 1009,8 13 0,0
23.08.2019 03:00:00 12,8 11,0 - - 42 23 67 36 WSW 1009,2 10 0,0
23.08.2019 02:00:00 12,8 11,2 - - 42 23 67 36 WSW 1008,5 9 0,0
23.08.2019 01:00:00 12,7 11,1 - - 42 23 68 37 WSW 1008,0 10 0,0
23.08.2019 00:00:00 13,0 10,8 - - 57 31 74 40 WSW 1006,9 12 0,0
22.08.2019 23:00:00 12,5 11,1 - - 46 25 78 42 SW 1006,7 6 0,4
22.08.2019 22:00:00 12,8 11,0 - - 46 25 65 35 SW 1006,3 5 0,0
22.08.2019 21:00:00 12,9 10,7 - - 46 25 72 39 SW 1005,8 4,1 0,0
22.08.2019 20:00:00 13,1 11,7 - - 24 13 - - SSW 1005,5 12 0,2
22.08.2019 19:00:00 12,9 11,6 - - 26 14 - - SSW 1005,5 13 0,0
22.08.2019 18:00:00 12,8 11,4 - - 29 16 48 26 S 1005,7 9 0,6
22.08.2019 17:00:00 12,9 12,0 - - 34 18 48 26 SSE 1006,0 9 0,0
22.08.2019 16:00:00 12,5 11,3 - - 28 15 - - SSE 1006,8 11 0,2
22.08.2019 15:00:00 12,7 10,6 - - 29 16 - - SSE 1007,8 16 0,0
22.08.2019 14:00:00 12,7 10,9 - - 24 13 - - S 1008,7 13 0,0
22.08.2019 13:00:00 12,5 11,2 - - 29 16 - - S 1009,1 13 0,0
22.08.2019 12:00:00 13,3 11,3 - - 28 15 - - S 1009,2 20 0,0
22.08.2019 11:00:00 13,4 11,2 - - 24 13 - - S 1009,5 12 0,0
22.08.2019 10:00:00 13,1 11,6 14,0 13,0 24 13 - - S 1009,8 21 0,0
22.08.2019 09:00:00 12,7 11,4 - - 24 13 - - S 1009,9 16 0,0
22.08.2019 08:00:00 12,1 11,4 - - 21 11 - - S 1010,0 15 0,0
22.08.2019 07:00:00 11,7 10,9 - - 16 9 - - SSW 1009,9 17 0,0
22.08.2019 06:00:00 11,1 10,8 - - 15 8 - - SSW 1009,8 10 0,0
22.08.2019 05:00:00 11,4 10,3 - - 16 9 - - WSW 1009,7 17 0,0
22.08.2019 04:00:00 11,7 11,3 - - 11 6 - - WSW 1009,8 8 0,0
22.08.2019 03:00:00 12,1 11,6 - - 22 12 - - WSW 1009,9 12 0,2
22.08.2019 02:00:00 12,1 12,1 - - 18 10 - - SSW 1010,0 8 1,2
22.08.2019 01:00:00 12,0 12,0 - - 26 14 - - S 1010,2 3,3 0,6
22.08.2019 00:00:00 12,3 12,0 - - 31 17 46 25 S 1010,7 8 0,2
21.08.2019 23:00:00 12,4 11,8 - - 35 19 54 29 SSE 1011,1 11 0,2
21.08.2019 22:00:00 12,7 11,6 - - 31 17 46 25 SSE 1011,7 11 0,2
21.08.2019 21:00:00 12,4 12,0 - - 29 16 - - S 1012,2 8 0,0
21.08.2019 20:00:00 12,6 12,0 - - 29 16 50 27 S 1012,6 10 0,6
21.08.2019 19:00:00 12,7 11,9 - - 31 17 - - SSE 1013,1 6 0,0
21.08.2019 18:00:00 12,8 12,0 - - 31 17 - - SSE 1013,8 12 0,0
21.08.2019 17:00:00 12,9 12,2 - - 35 19 - - SSE 1014,6 10 0,0
21.08.2019 16:00:00 13,2 12,1 - - 24 13 - - SSE 1014,9 8 0,0
21.08.2019 15:00:00 13,8 12,4 - - 26 14 - - SSE 1015,8 11 0,0
21.08.2019 14:00:00 13,8 12,3 - - 26 14 - - SSE 1016,4 11 0,0
21.08.2019 13:00:00 14,0 12,5 - - 28 15 - - SSE 1016,8 11 0,0
21.08.2019 12:00:00 13,9 12,4 - - 28 15 - - SSE 1017,2 26 0,0
21.08.2019 11:00:00 13,9 12,5 - - 24 13 - - SE 1017,6 18 0,0
21.08.2019 10:00:00 13,6 12,1 14,0 13,0 29 16 - - SSE 1018,2 21 0,0
21.08.2019 09:00:00 12,6 11,7 - - 29 16 - - SSE 1018,7 23 0,0
21.08.2019 08:00:00 12,3 11,5 - - 22 12 - - SE 1018,8 22 0,0
21.08.2019 07:00:00 11,6 10,9 - - 18 10 - - SE 1019,0 35 0,0
21.08.2019 06:00:00 11,2 10,1 - - 15 8 - - SE 1019,1 23 0,0
21.08.2019 05:00:00 10,7 9,5 - - 13 7 - - SE 1019,5 27 0,0
21.08.2019 04:00:00 10,4 9,2 - - 11 6 - - SSE 1019,8 30 0,0
21.08.2019 03:00:00 9,9 8,7 - - 15 8 - - S 1020,1 29 0,0
21.08.2019 02:00:00 9,4 7,8 - - 13 7 - - S 1020,2 30 0,0
21.08.2019 01:00:00 9,3 7,4 - - 11 6 - - S 1020,2 40 0,0
21.08.2019 00:00:00 9,4 6,6 - - 8 4 - - S 1020,2 26 0,0
20.08.2019 23:00:00 9,8 6,5 - - 8 4 - - WSW 1020,0 30 0,0
20.08.2019 22:00:00 10,1 6,3 - - 9 5 - - W 1019,8 30 0,0
20.08.2019 21:00:00 10,2 5,7 - - 15 8 - - W 1019,4 40 0,0
20.08.2019 20:00:00 10,7 5,6 - - 21 11 - - W 1019,0 27 0,0
20.08.2019 19:00:00 11,2 6,3 - - 15 8 - - W 1018,4 29 0,0
20.08.2019 18:00:00 11,4 5,9 - - 18 10 - - W 1018,0 30 0,0
20.08.2019 17:00:00 11,9 7,5 - - 18 10 - - W 1017,6 28 0,0
20.08.2019 16:00:00 12,1 6,9 - - 16 9 - - W 1017,0 25 0,0
20.08.2019 15:00:00 10,9 6,9 - - 26 14 - - W 1016,6 30 0,0
20.08.2019 14:00:00 11,4 6,8 - - 28 15 - - W 1015,7 28 0,0
20.08.2019 13:00:00 11,2 7,4 - - 24 13 48 26 WNW 1014,9 21 0,0
20.08.2019 12:00:00 11,3 6,7 - - 29 16 46 25 W 1014,0 29 0,0
20.08.2019 11:00:00 11,7 8,6 - - 24 13 - - WNW 1013,2 22 0,0
20.08.2019 10:00:00 11,5 8,5 14,2 13,0 28 15 - - W 1012,5 25 0,0
20.08.2019 09:00:00 11,0 8,7 - - 24 13 - - W 1011,8 27 0,0
20.08.2019 08:00:00 10,5 8,4 - - 22 12 - - W 1011,1 20 0,0
20.08.2019 07:00:00 10,0 7,2 - - 34 18 50 27 W 1010,4 40 0,0
20.08.2019 06:00:00 10,4 7,5 - - 31 17 52 28 W 1009,5 27 0,0
20.08.2019 05:00:00 10,2 7,9 - - 24 13 46 25 WNW 1008,8 22 0,0
20.08.2019 04:00:00 10,5 8,9 - - 31 17 48 26 W 1008,0 21 0,2
20.08.2019 03:00:00 10,1 9,6 - - 26 14 - - WNW 1007,5 3,1 0,4
20.08.2019 02:00:00 11,3 9,2 - - 29 16 - - W 1006,7 20 0,0
20.08.2019 01:00:00 11,7 9,5 - - 21 11 - - W 1006,3 26 0,0

tt = Température de l'air
td = dewpoint
tt -20cm = Température de l'air -20cm
tt -100cm = Température de l'air -100cm
ff = Vitesse du vent
fx = gusts
dd = Direction du vent
ppp = reduced air pressure
vv = visibility
rr = Quantités de précipitations

stations d'obs. à proximité